TimeMDT,TemperatureF,Dew PointF,Humidity,Sea Level PressureIn,VisibilityMPH,Wind Direction,Wind SpeedMPH,Gust SpeedMPH,PrecipitationIn,Events,Conditions,WindDirDegrees,DateUTC
12:51 AM,51.1,30.0,44,30.22,10.0,Calm,Calm,-,N/A,,Clear,0,2012-09-08 06:51:00
1:51 AM,48.0,27.0,44,30.22,10.0,Calm,Calm,-,N/A,,Clear,0,2012-09-08 07:51:00
2:51 AM,46.0,30.0,54,30.21,10.0,Calm,Calm,-,N/A,,Clear,0,2012-09-08 08:51:00
3:51 AM,44.1,28.9,55,30.20,10.0,Calm,Calm,-,N/A,,Clear,0,2012-09-08 09:51:00
4:51 AM,41.0,33.1,73,30.22,10.0,Calm,Calm,-,N/A,,Clear,0,2012-09-08 10:51:00
5:51 AM,41.0,28.9,62,30.23,10.0,Calm,Calm,-,N/A,,Clear,0,2012-09-08 11:51:00
6:51 AM,37.9,30.0,73,30.25,10.0,Calm,Calm,-,N/A,,Clear,0,2012-09-08 12:51:00
7:51 AM,39.0,30.9,73,30.26,10.0,Calm,Calm,-,N/A,,Clear,0,2012-09-08 13:51:00
8:51 AM,48.9,32.0,52,30.27,10.0,Calm,Calm,-,N/A,,Clear,0,2012-09-08 14:51:00
9:51 AM,54.0,34.0,47,30.26,10.0,Calm,Calm,-,N/A,,Clear,0,2012-09-08 15:51:00
10:51 AM,61.0,34.0,36,30.25,10.0,Calm,Calm,-,N/A,,Clear,0,2012-09-08 16:51:00
11:51 AM,66.0,37.0,34,30.22,10.0,Calm,Calm,-,N/A,,Clear,0,2012-09-08 17:51:00
12:51 PM,72.0,35.1,26,30.19,10.0,Calm,Calm,-,N/A,,Clear,0,2012-09-08 18:51:00
1:51 PM,77.0,17.1,10,30.16,10.0,SSW,5.8,-,N/A,,Clear,200,2012-09-08 19:51:00
2:51 PM,78.1,21.0,12,30.14,10.0,SSE,5.8,-,N/A,,Clear,160,2012-09-08 20:51:00
3:51 PM,80.1,21.9,12,30.11,10.0,Variable,6.9,-,N/A,,Clear,0,2012-09-08 21:51:00
4:51 PM,81.0,24.1,12,30.09,10.0,South,8.1,-,N/A,,Clear,190,2012-09-08 22:51:00
5:51 PM,80.1,26.1,14,30.07,10.0,South,9.2,-,N/A,,Clear,180,2012-09-08 23:51:00
6:51 PM,79.0,27.0,15,30.07,10.0,SE,6.9,-,N/A,,Clear,140,2012-09-09 00:51:00
7:51 PM,75.0,30.0,19,30.07,10.0,Calm,Calm,-,N/A,,Clear,0,2012-09-09 01:51:00
8:51 PM,64.0,32.0,30,30.06,10.0,ENE,3.5,-,N/A,,Clear,70,2012-09-09 02:51:00
9:51 PM,63.0,34.0,34,30.04,10.0,North,4.6,-,N/A,,Clear,350,2012-09-09 03:51:00
10:51 PM,55.9,33.1,42,30.03,10.0,ENE,4.6,-,N/A,,Clear,60,2012-09-09 04:51:00
11:51 PM,53.1,32.0,45,30.02,10.0,NE,4.6,-,N/A,,Clear,50,2012-09-09 05:51:00